[[{"header":{"parameterUnit":"m.s-1","parameterCategory":1,"la1":30.2991,"la2":30.254,"lo1":-89.0895,"lo2":-89.0444,"dy":0.0017,"dx":0.0017,"nx":28,"ny":28,"refTime":"2025-06-21T03:00:00:Z","depth":0,"parameterNumber":2,"parameterNumberName":"U-component_of_WINDS"},"data":[0,0,0,0,0,0,0,0,0,0,0,0,0,0,0,0,0,0,0,0,0,0,0,0,0,0,0,0,0,0,0,0,0,0,0,0,0,0,0,0,0,0,0,0,0,0,0,0,0,0,0,0,0,0,0,0,0,0,-0.5101,-0.51,0,-0.5057,-0.5057,-0.5056,-0.5007,-0.5006,-0.5005,-0.5005,-0.4963,-0.4962,-0.4962,0,0,0,0,0,0,0,0,0,0,0,0,0,-0.5143,-0.5143,-0.5101,-0.51,-0.51,-0.5057,-0.5057,-0.5056,-0.5007,-0.5006,-0.5005,-0.5004,-0.4963,-0.4962,-0.4962,0,0,0,0,0,0,0,0,0,0,0,0,0,-0.5115,-0.5142,-0.5101,-0.507,-0.5067,-0.5058,-0.5057,-0.5056,-0.5007,-0.5006,-0.5005,-0.5004,-0.4963,-0.4962,-0.4962,-0.498,0,0,-0.496,-0.4959,0,0,0,0,0,0,0,0,-0.5116,-0.5113,-0.5075,-0.5072,-0.5068,-0.5036,-0.5056,-0.5031,-0.5007,-0.503,-0.5005,-0.5003,-0.4988,-0.4985,-0.498,-0.4978,-0.4976,-0.496,-0.4959,-0.4959,-0.4959,0,0,0,0,0,0,0,-0.5119,-0.5115,-0.5084,-0.5075,-0.507,-0.5059,-0.5054,-0.5051,-0.5016,-0.5028,-0.5024,-0.502,-0.4986,-0.4981,-0.4978,-0.4976,-0.496,-0.4959,-0.4959,-0.4958,-0.4988,-0.4989,0,0,0,0,0,0,-0.5125,-0.5117,-0.5085,-0.5082,-0.509,-0.5059,-0.5053,-0.5048,-0.5016,-0.501,-0.5021,-0.5017,-0.4982,-0.4979,-0.4977,-0.4997,-0.4959,-0.4958,-0.4958,-0.4987,-0.4988,-0.4989,0,0,0,0,0,0,-0.5126,-0.5122,-0.5087,-0.5099,-0.5093,-0.506,-0.5054,-0.5048,-0.5042,-0.501,-0.5004,-0.5021,-0.4981,-0.4978,-0.498,-0.4995,-0.4958,-0.4958,-0.4985,-0.4987,-0.4989,-0.5037,0,0,0,0,0,0,-0.5127,-0.5123,-0.5129,-0.5099,-0.5093,-0.509,-0.5055,-0.5047,-0.5041,-0.5036,-0.5009,-0.5004,-0.498,-0.4981,-0.4979,-0.4993,-0.4957,-0.4984,-0.4986,-0.4988,-0.5034,-0.5041,-0.5046,0,0,0,0,0,-0.5129,-0.5145,-0.513,-0.5126,-0.51,-0.5091,-0.5087,-0.5059,-0.5042,-0.5048,-0.5028,-0.5004,-0.4993,-0.4981,-0.4979,-0.4993,-0.4983,-0.4985,-0.4988,-0.5032,-0.5039,-0.5046,0,0,0,0,0,0,-0.5179,-0.5141,-0.5123,-0.513,-0.5114,-0.5082,-0.509,-0.5068,-0.5057,-0.5054,-0.502,-0.5014,-0.502,-0.5007,-0.4994,-0.501,-0.4984,-0.4987,-0.5019,-0.5026,-0.5031,-0.5035,-0.4956,0,0,0,0,0,-0.5191,-0.5186,-0.5153,-0.5162,-0.5155,-0.5124,-0.5119,-0.5098,-0.5081,-0.5074,-0.5054,-0.5038,-0.5031,-0.5027,-0.5019,-0.5031,-0.5026,-0.504,-0.5046,-0.5051,-0.5054,-0.506,-0.5067,-0.4998,-0.4998,-0.4998,0,0,-0.5215,-0.5194,-0.5193,-0.5172,-0.5157,-0.5154,-0.5118,-0.5116,-0.5114,-0.5074,-0.5075,-0.5059,-0.504,-0.5047,-0.505,-0.5036,-0.5071,-0.5054,-0.5058,-0.5059,-0.5064,-0.507,-0.5076,-0.5,-0.4999,-0.4999,0,0,-0.5258,-0.5241,-0.5247,-0.5233,-0.521,-0.5189,-0.5191,-0.5163,-0.5151,-0.5151,-0.5121,-0.5117,-0.5106,-0.5093,-0.5085,-0.5123,-0.5102,-0.5122,-0.5153,-0.5159,-0.5165,-0.5169,-0.5184,-0.519,-0.5124,-0.5124,-0.5124,0,-0.5292,-0.5285,-0.5253,-0.5253,-0.5245,-0.5207,-0.5214,-0.5202,-0.5178,-0.5174,-0.5159,-0.5144,-0.5128,-0.5132,-0.5141,-0.5136,-0.5137,-0.5125,-0.5166,-0.5171,-0.5175,-0.5188,-0.5194,-0.5127,-0.5127,-0.5126,-0.5126,0,-0.5328,-0.5324,-0.5331,-0.5309,-0.5302,-0.5305,-0.5274,-0.527,-0.5251,-0.5232,-0.5232,-0.5212,-0.5199,-0.5198,-0.5179,-0.52,-0.5193,-0.5172,-0.5147,-0.5184,-0.5197,-0.5202,-0.5131,-0.513,-0.5129,-0.5128,0,0,-0.5403,-0.5362,-0.5366,-0.5355,-0.5327,-0.5324,-0.5326,-0.5312,-0.531,-0.5295,-0.5297,-0.5287,-0.5268,-0.5259,-0.5238,-0.5244,-0.5277,-0.5223,-0.5222,-0.5235,-0.53,-0.5317,-0.5323,-0.5261,-0.5262,-0.5263,-0.5302,0,-0.5442,-0.5442,-0.5413,-0.5422,-0.5418,-0.5382,-0.5383,-0.5367,-0.5349,-0.5344,-0.5324,-0.5319,-0.5294,-0.5288,-0.5292,-0.5272,-0.529,-0.5269,-0.5264,-0.5264,-0.5271,-0.5329,-0.5347,-0.5385,-0.5307,-0.5307,-0.5308,0,-0.5488,-0.5475,-0.5483,-0.5455,-0.5453,-0.5455,-0.544,-0.5435,-0.5416,-0.5403,-0.5393,-0.5368,-0.5369,-0.5343,-0.5344,-0.533,-0.5326,-0.5316,-0.5317,-0.5317,-0.5289,-0.5332,-0.5396,-0.5403,-0.5315,-0.5314,-0.5314,0,-0.5544,-0.5528,-0.5531,-0.5523,-0.549,-0.5492,-0.5479,-0.5458,-0.5452,-0.544,-0.5436,-0.5424,-0.5418,-0.5409,-0.5383,-0.5366,-0.5387,-0.5359,-0.5377,-0.5378,-0.5384,-0.5385,-0.545,-0.538,-0.5379,-0.5379,-0.5379,0,-0.5592,-0.5599,-0.5555,-0.5558,-0.5564,-0.5531,-0.5538,-0.5521,-0.5503,-0.5502,-0.547,-0.547,-0.5434,-0.543,-0.5409,-0.5413,-0.541,-0.54,-0.5395,-0.5404,-0.5406,-0.5402,-0.54,-0.5381,-0.538,-0.538,-0.538,0,-0.5656,-0.5627,-0.5628,-0.5596,-0.5588,-0.5595,-0.5568,-0.5569,-0.5549,-0.5548,-0.5545,-0.5514,-0.5507,-0.5479,-0.5466,-0.5452,-0.5464,-0.5453,-0.5471,-0.5468,-0.5488,-0.5487,-0.5555,-0.5563,-0.5486,-0.5486,-0.5487,0,-0.5689,-0.5693,-0.5662,-0.5658,-0.5646,-0.5641,-0.5634,-0.5601,-0.5596,-0.5574,-0.5578,-0.5568,-0.5559,-0.5551,-0.5527,-0.5517,-0.5506,-0.553,-0.5504,-0.5514,-0.5508,-0.5509,-0.551,-0.5537,-0.5538,-0.5538,-0.5539,0,-0.5752,-0.5737,-0.5728,-0.5715,-0.5707,-0.5695,-0.5681,-0.568,-0.5644,-0.564,-0.5632,-0.5625,-0.5611,-0.5603,-0.5588,-0.5575,-0.5552,-0.5547,-0.5551,-0.5561,-0.5572,-0.5568,-0.5488,-0.5546,-0.5546,-0.5545,-0.5545,-0.5544,-0.5803,-0.5805,-0.5783,-0.5774,-0.576,-0.5748,-0.5747,-0.5726,-0.5719,-0.5705,-0.5686,-0.5681,-0.5662,-0.564,-0.5629,-0.5625,-0.5612,-0.5617,-0.5619,-0.5621,-0.5626,-0.5571,-0.5622,-0.5622,-0.5622,-0.5622,-0.5621,0,-0.5865,-0.5849,-0.5841,-0.5822,-0.5815,-0.5792,-0.5775,-0.5772,-0.5767,-0.5751,-0.5742,-0.5734,-0.5725,-0.5701,-0.569,-0.5692,-0.5681,-0.5691,-0.5691,-0.5689,-0.5638,-0.5636,-0.57,-0.57,-0.57,-0.57,-0.57,-0.57,-0.5897,-0.5899,-0.5882,-0.5878,-0.5861,-0.5856,-0.5848,-0.5837,-0.5824,-0.5816,-0.5808,-0.5792,-0.5772,-0.576,-0.5751,-0.5744,-0.5743,-0.5756,-0.5746,-0.5699,-0.5692,-0.5685,-0.5683,-0.5755,-0.5755,-0.5797,-0.5797,-0.5797]},{"header":{"parameterUnit":"m.s-1","parameterCategory":1,"la1":30.2991,"la2":30.254,"lo1":-89.0895,"lo2":-89.0444,"dy":0.0017,"dx":0.0017,"nx":28,"ny":28,"refTime":"2025-06-21T03:00:00:Z","depth":0,"parameterNumber":3,"parameterNumberName":"V-component_of_WINDS"},"data":[0,0,0,0,0,0,0,0,0,0,0,0,0,0,0,0,0,0,0,0,0,0,0,0,0,0,0,0,0,0,0,0,0,0,0,0,0,0,0,0,0,0,0,0,0,0,0,0,0,0,0,0,0,0,0,0,0,0,2.5856,2.5856,0,2.5854,2.5854,2.5854,2.5815,2.5814,2.5813,2.5812,2.581,2.5811,2.5811,0,0,0,0,0,0,0,0,0,0,0,0,0,2.5826,2.5826,2.5856,2.5856,2.5856,2.5854,2.5854,2.5854,2.5815,2.5814,2.5812,2.5811,2.5809,2.581,2.5811,0,0,0,0,0,0,0,0,0,0,0,0,0,2.5833,2.5827,2.5856,2.5836,2.5834,2.5854,2.5854,2.5854,2.5815,2.5814,2.5812,2.5811,2.5809,2.581,2.5812,2.5849,0,0,2.5816,2.5816,0,0,0,0,0,0,0,0,2.5832,2.5834,2.5839,2.5838,2.5836,2.5833,2.5842,2.5852,2.5816,2.5822,2.5812,2.581,2.5819,2.5819,2.5822,2.5849,2.5849,2.5816,2.5816,2.5817,2.5817,0,0,0,0,0,0,0,2.5832,2.5834,2.5855,2.5839,2.5837,2.5827,2.5827,2.5844,2.5829,2.5822,2.5819,2.5819,2.5817,2.5821,2.5822,2.5849,2.5816,2.5817,2.5818,2.5818,2.5906,2.5908,0,0,0,0,0,0,2.5834,2.5834,2.5855,2.5855,2.583,2.5829,2.5828,2.5835,2.5829,2.5826,2.582,2.5817,2.5819,2.582,2.5821,2.5864,2.5817,2.5818,2.5819,2.5905,2.5906,2.5908,0,0,0,0,0,0,2.5834,2.5836,2.5855,2.5843,2.5845,2.5831,2.5839,2.5836,2.5839,2.5828,2.5825,2.5827,2.5818,2.582,2.5842,2.5863,2.5819,2.582,2.5903,2.5905,2.5907,2.595,0,0,0,0,0,0,2.5833,2.5836,2.5851,2.5844,2.5846,2.5877,2.5841,2.5837,2.5842,2.5838,2.5833,2.583,2.5817,2.5841,2.5844,2.5864,2.5821,2.5901,2.5904,2.5907,2.5947,2.5954,2.596,0,0,0,0,0,2.5832,2.5864,2.5852,2.5855,2.5864,2.5878,2.5879,2.5863,2.5844,2.5858,2.585,2.5831,2.5861,2.5843,2.5846,2.5868,2.5899,2.5903,2.5906,2.5944,2.5953,2.596,0,0,0,0,0,0,2.5874,2.5862,2.5849,2.588,2.588,2.5871,2.5889,2.5872,2.5878,2.5874,2.5854,2.5853,2.5879,2.5876,2.5856,2.5903,2.5877,2.5881,2.5904,2.5912,2.5918,2.5918,2.5822,0,0,0,0,0,2.5886,2.5899,2.5888,2.5916,2.5917,2.5903,2.5908,2.5896,2.5895,2.5895,2.5889,2.589,2.5899,2.5906,2.5914,2.5947,2.5944,2.5963,2.5969,2.5975,2.5978,2.5994,2.6002,2.592,2.592,2.592,0,0,2.5913,2.5908,2.5917,2.5924,2.5923,2.5936,2.5903,2.5919,2.5928,2.5898,2.5918,2.5914,2.5913,2.5941,2.5953,2.5939,2.6,2.5979,2.5983,2.5984,2.5998,2.6006,2.6013,2.5922,2.5922,2.5921,0,0,2.5967,2.5965,2.5987,2.5987,2.5985,2.5975,2.5981,2.5974,2.597,2.5991,2.5968,2.5979,2.5996,2.5995,2.5998,2.6051,2.6033,2.6054,2.6087,2.6103,2.6109,2.6115,2.6133,2.614,2.6058,2.6058,2.6058,0,2.6,2.6019,2.6001,2.6017,2.6021,2.5994,2.6015,2.6016,2.6017,2.602,2.6004,2.6024,2.6022,2.6048,2.6061,2.6064,2.6069,2.6054,2.611,2.6115,2.612,2.6137,2.6144,2.6061,2.606,2.606,2.606,0,2.6058,2.6072,2.609,2.6091,2.6096,2.6115,2.61,2.6108,2.6095,2.6087,2.6107,2.6104,2.611,2.6115,2.6103,2.614,2.6131,2.6114,2.6086,2.6131,2.6146,2.6153,2.6064,2.6063,2.6063,2.6062,0,0,2.6139,2.6129,2.6136,2.6135,2.6131,2.6141,2.6159,2.6165,2.6171,2.6173,2.6186,2.6201,2.6184,2.6187,2.6174,2.6188,2.6229,2.6168,2.6168,2.6178,2.6268,2.628,2.6288,2.6217,2.6219,2.6219,2.6267,0,2.619,2.6219,2.6203,2.6234,2.6246,2.622,2.6235,2.6234,2.6227,2.6236,2.6228,2.6238,2.6215,2.6216,2.6229,2.6221,2.6246,2.6218,2.6229,2.623,2.6229,2.6296,2.631,2.6355,2.6273,2.6275,2.6275,0,2.6253,2.6257,2.6289,2.6282,2.6286,2.63,2.6303,2.6312,2.631,2.6304,2.6306,2.629,2.6306,2.628,2.6302,2.6282,2.6286,2.6283,2.6284,2.6284,2.6254,2.6296,2.637,2.6376,2.6285,2.6284,2.6283,0,2.6307,2.632,2.634,2.6341,2.6333,2.6344,2.6341,2.6337,2.6341,2.6345,2.6347,2.6352,2.6355,2.6359,2.6345,2.6327,2.6368,2.6341,2.6362,2.6363,2.6371,2.6371,2.6445,2.6376,2.6376,2.6376,2.6376,0,2.6365,2.6385,2.6364,2.6377,2.6398,2.638,2.6402,2.6397,2.6394,2.6404,2.6383,2.6394,2.6375,2.6383,2.6372,2.6391,2.6393,2.6388,2.6384,2.6389,2.6389,2.639,2.6386,2.6378,2.6377,2.6377,2.6377,0,2.6428,2.6415,2.6435,2.6426,2.6424,2.644,2.6432,2.6443,2.6434,2.6448,2.645,2.6437,2.6446,2.6432,2.644,2.6432,2.6458,2.645,2.6458,2.6455,2.6478,2.6475,2.6554,2.6563,2.649,2.649,2.6491,0,2.6465,2.648,2.6472,2.6477,2.6476,2.6485,2.6489,2.6471,2.6476,2.6475,2.6486,2.6493,2.6497,2.6512,2.6503,2.6509,2.65,2.6527,2.6501,2.6505,2.6499,2.6498,2.6499,2.6532,2.6533,2.6534,2.6535,0,2.6532,2.6525,2.6531,2.6534,2.6539,2.6542,2.6542,2.6548,2.653,2.6536,2.6545,2.6548,2.6555,2.6562,2.6565,2.6562,2.6545,2.6543,2.6548,2.6552,2.6556,2.6553,2.6472,2.6541,2.6541,2.654,2.654,2.6539,2.6582,2.6594,2.659,2.6597,2.6595,2.6596,2.6606,2.6598,2.6605,2.6609,2.6598,2.6609,2.6606,2.6608,2.6607,2.6615,2.6603,2.6611,2.6612,2.6614,2.6617,2.6556,2.6616,2.6615,2.6615,2.6615,2.6615,0,2.6647,2.6643,2.665,2.6651,2.6657,2.664,2.664,2.6645,2.6655,2.6653,2.6658,2.6667,2.6674,2.6665,2.667,2.6678,2.667,2.668,2.6678,2.6678,2.6628,2.6623,2.6686,2.6686,2.6686,2.6686,2.6686,2.6686,2.6681,2.6699,2.6691,2.6708,2.6704,2.6714,2.6715,2.6715,2.6714,2.6725,2.673,2.6724,2.6719,2.6724,2.6729,2.6726,2.6728,2.674,2.6735,2.6688,2.6681,2.6675,2.6669,2.6741,2.6741,2.6783,2.6783,2.6784]}]]